This demonstration page uses our WeatherBlox Daily Observations layout. Learn more.

Left ArrowRight Arrow

39.51506, -84.39828

Hourly Observations for June 30, 2016

Temp ( °F °C ) Dew Point ( °F °C ) Humidity (%) Winds ( mph kmh ) Pressure ( in mb ) Visibility ( mi km ) Precip ( " mm )
12:15 am 00:15 Mostly Cloudy 61 16.1 53 11.5 74 74 N N/A 30.06 1018 10 16 N/A
12:35 am 00:35 Mostly Cloudy 61 16 53 11.7 76 76 N N/A 30.09 1019 10 16 N/A
12:55 am 00:55 Cloudy 62 16.6 53 11.7 73 73 N N/A 30.06 1018 10 16 N/A
1:15 am 01:15 Partly Cloudy 63 17.3 52 11.1 67 67 NNE 5 7 30.06 1018 10 16 N/A
1:35 am 01:35 Partly Cloudy 63 17.2 53 11.6 70 70 N N/A 30.06 1018 10 16 N/A
1:55 am 01:55 Cloudy 64 17.6 52 11.3 67 67 N N/A 30.06 1018 10 16 N/A
2:15 am 02:15 Mostly Cloudy 62 16.6 51 10.7 68 68 N N/A 30.06 1018 10 16 N/A
2:35 am 02:35 Mostly Cloudy 61 16 52 11.2 73 73 NNW 3 6 30.09 1019 10 16 N/A
2:55 am 02:55 Partly Cloudy 60 15.3 52 11.2 77 77 N 3 6 30.09 1019 10 16 N/A
3:15 am 03:15 Partly Cloudy 60 15.3 53 11.5 78 78 N N/A 30.09 1019 10 16 N/A
3:35 am 03:35 Clear 59 15 53 11.4 79 79 N N/A 30.09 1019 10 16 N/A
3:55 am 03:55 Clear 57 13.8 51 10.3 80 80 N N/A 30.09 1019 10 16 N/A
4:15 am 04:15 Clear 57 13.8 51 10.5 81 81 N N/A 30.06 1018 10 16 N/A
4:35 am 04:35 Clear 57 13.8 51 10.5 81 81 NNW 3 6 30.06 1018 10 16 N/A
4:55 am 04:55 Clear 57 13.8 51 10.6 81 81 N N/A 30.06 1018 10 16 N/A
5:15 am 05:15 Clear 56 13.4 50 10.2 81 81 N N/A 30.06 1018 10 16 N/A
5:35 am 05:35 Clear 55 12.6 49 9.4 81 81 N N/A 30.06 1018 10 16 N/A
5:55 am 05:55 Clear 55 12.5 49 9.2 80 80 N N/A 30.09 1019 10 16 N/A
6:15 am 06:15 Sunny 55 12.5 49 9.3 81 81 N N/A 30.09 1019 10 16 N/A
6:35 am 06:35 Sunny 55 12.7 49 9.6 82 82 N N/A 30.09 1019 10 16 N/A
6:55 am 06:55 Sunny 57 13.8 51 10.6 81 81 N N/A 30.09 1019 10 16 N/A
7:15 am 07:15 Sunny 57 13.8 51 10.6 81 81 N N/A 30.09 1019 10 16 N/A
7:35 am 07:35 Sunny 60 15.3 53 11.9 80 80 N N/A 30.09 1019 10 16 N/A
7:55 am 07:55 Sunny 61 16.2 53 11.4 73 73 N N/A 30.06 1018 10 16 N/A
8:10 am 08:10 Sunny 63 17 52 11.3 69 69 N N/A 30.06 1018 10 16 N/A
8:35 am 08:35 Sunny 67 19.5 52 11.3 59 59 N N/A 30.06 1018 10 16 N/A
8:55 am 08:55 Sunny 69 20.8 54 12.1 58 58 N N/A 30.06 1018 10 16 N/A
9:15 am 09:15 Sunny 69 20.8 51 10.7 53 53 N N/A 30.06 1018 10 16 N/A
9:35 am 09:35 Sunny 71 21.6 51 10.7 50 50 N N/A 30.06 1018 10 16 N/A
9:55 am 09:55 Sunny 73 23 52 11.3 48 48 N N/A 30.06 1018 10 16 N/A
10:15 am 10:15 Sunny 74 23.6 52 11 45 45 W 5 7 30.06 1018 10 16 N/A
10:35 am 10:35 Sunny 74 23.6 51 10.6 44 44 SW 5 7 30.06 1018 10 16 N/A
10:55 am 10:55 Sunny 77 25.1 51 10.4 40 40 SSW 5 7 30.06 1018 10 16 N/A
11:15 am 11:15 Sunny 77 25.1 48 8.8 36 36 SW 7 11 30.03 1017 10 16 N/A
11:35 am 11:35 Sunny 78 25.5 38 3.5 24 24 WSW 3 6 30.06 1018 10 16 N/A
11:55 am 11:55 Sunny 80 26.5 39 3.8 23 23 N N/A 30.03 1017 10 16 N/A
12:15 pm 12:15 Sunny 80 26.5 42 5.5 26 26 N N/A 30.03 1017 10 16 N/A
12:35 pm 12:35 Sunny 80 26.5 43 6 27 27 S 8 13 30.03 1017 10 16 N/A
12:55 pm 12:55 Sunny 80 26.5 40 4.3 24 24 NW 3 6 30.03 1017 10 16 N/A
1:15 pm 13:15 Sunny 80 26.5 40 4.2 24 24 N N/A 30.03 1017 10 16 N/A
1:35 pm 13:35 Sunny 81 27.3 42 5.6 25 25 SSW 5 7 30.03 1017 10 16 N/A
1:55 pm 13:55 Sunny 80 26.5 37 2.6 21 21 NNW 5 7 30.00 1016 10 16 N/A
2:15 pm 14:15 Sunny 82 27.5 37 2.8 20 20 N N/A 30.00 1016 10 16 N/A
2:35 pm 14:35 Sunny 82 27.6 36 2.3 19 19 N N/A 30.00 1016 10 16 N/A
2:55 pm 14:55 Sunny 82 28 35 1.7 18 18 N N/A 30.00 1016 10 16 N/A
3:15 pm 15:15 Sunny 82 27.7 34 1.3 18 18 N N/A 30.00 1016 10 16 N/A
3:35 pm 15:35 Sunny 82 27.5 37 2.5 20 20 S 7 11 30.00 1016 10 16 N/A
3:55 pm 15:55 Sunny 81 27.2 37 2.6 20 20 SSW 5 7 30.00 1016 10 16 N/A
4:15 pm 16:15 Sunny 80 26.8 38 3.1 22 22 SW 3 6 30.00 1016 10 16 N/A
4:35 pm 16:35 Sunny 80 26.5 40 4.6 25 25 WSW 5 7 30.00 1016 10 16 N/A
4:55 pm 16:55 Sunny 80 26.5 41 4.9 25 25 WSW 5 7 30.00 1016 10 16 N/A
5:15 pm 17:15 Sunny 80 26.5 42 5.3 26 26 WSW 3 6 30.00 1016 10 16 N/A
5:35 pm 17:35 Sunny 80 26.5 42 5.4 26 26 W 6 9 29.97 1015 10 16 N/A
5:55 pm 17:55 Sunny 80 26.5 44 6.8 29 29 W 5 7 29.97 1015 10 16 N/A
6:15 pm 18:15 Sunny 80 26.5 45 7 29 29 W 5 7 29.97 1015 10 16 N/A
6:35 pm 18:35 Sunny 80 26.5 44 6.5 28 28 W 6 9 29.97 1015 10 16 N/A
6:55 pm 18:55 Sunny 80 26.5 46 7.9 31 31 W 5 7 29.97 1015 10 16 N/A
7:15 pm 19:15 Sunny 81 27.1 44 6.8 28 28 W 3 6 29.97 1015 10 16 N/A
7:35 pm 19:35 Sunny 80 26.5 44 6.5 28 28 SW 6 9 29.97 1015 10 16 N/A
8:15 pm 20:15 Sunny 80 26.5 47 8.6 32 32 W 3 6 29.97 1015 10 16 N/A
8:35 pm 20:35 Sunny 77 25.1 51 10.6 40 40 N N/A 29.94 1014 10 16 N/A
8:55 pm 20:55 Sunny 74 23.6 57 13.9 55 55 N N/A 29.97 1015 10 16 N/A
9:15 pm 21:15 Clear 70 20.9 55 12.6 59 59 N N/A 29.97 1015 10 16 N/A
9:35 pm 21:35 Clear 69 20.8 57 13.9 65 65 N N/A 29.97 1015 10 16 N/A
9:55 pm 21:55 Clear 69 20.8 56 13.6 64 64 N N/A 29.97 1015 10 16 N/A
10:15 pm 22:15 Clear 69 20.8 58 14.6 68 68 N N/A 29.97 1015 10 16 N/A
10:35 pm 22:35 Partly Cloudy 67 19.5 58 14.2 72 72 N N/A 29.97 1015 10 16 N/A
10:55 pm 22:55 Clear 66 18.9 57 14.1 74 74 N N/A 29.97 1015 10 16 N/A
11:15 pm 23:15 Clear 63 17.2 55 13 76 76 N N/A 29.97 1015 10 16 N/A
11:35 pm 23:35 Partly Cloudy 63 17.1 55 12.6 75 75 N N/A 29.97 1015 10 16 N/A
11:55 pm 23:55 Mostly Cloudy 64 18 55 13 73 73 N N/A 29.97 1015 10 16 N/A

Powered by AerisWeather